Weather Roundup
Issued by NWS Springfield, MO

Home | Current Version | Previous Version | Text Only | Print | Product List | Glossary On
Versions: 1 2 3 4 5 6 7 8 9 10 11 12 13 14 15 16 17 18 19 20 21 22 23 24 25 26 27 28 29 30 31 32 33 34 35 36 37 38 39 40 41 42 43 44 45 46 47 48 49 50
000
NZUS99 KSGF 291907
HRRSGF

HOURLY WEATHER
NATIONAL WEATHER SERVICE SPRINGFIELD MO
100 PM CST THU JAN 29 2015

......SGF CWA......

CITY           SKY/WX    TMP DP  RH WIND       PRES   REMARKS
SPRINGFIELD    CLOUDY    40  30  67 NW14      30.30S WCI  32
JOPLIN         CLOUDY    43  29  57 NW21      30.37F
WEST PLAINS    CLOUDY    40  31  70 NW17G28   30.25R WCI  31
ROLLA          CLOUDY    39  28  64 NW20G29   30.21R WCI  29
OSAGE BEACH    CLOUDY    39  27  60 NW9G22    30.27S WCI  33
BRANSON        CLOUDY    39  32  75 NW20G29   30.29S WCI  30

......SURROUNDING SGF CWA......

CITY           SKY/WX    TMP DP  RH WIND       PRES   REMARKS
CHANUTE        CLOUDY    46  28  49 NW20G29   30.39F
PARSONS        CLOUDY    46  31  55 N18G26    30.40S
COFFEYVILLE    CLOUDY    48  29  47 N22       30.40F
EMPORIA        CLOUDY    44  28  53 N18G29    30.40F
GROVE OK       CLOUDY    45  32  61 N16G24    30.39F
ROGERS AR      CLOUDY    40  32  73 NW15G22   30.33S WCI  32
SILOAM SPRINGS CLOUDY   N/A N/A N/A N22G30    30.35S
HARRISON AR    CLOUDY    40  33  76 NW16G24   30.28R WCI  31
NEAR YELLVILLE CLOUDY    45  32  61 NW17G26   30.26R

......KANSAS AND MISSOURI......

CITY           SKY/WX    TMP DP  RH WIND       PRES   REMARKS
KANSAS CTY INT CLOUDY    40  28  62 N20G25    30.35S WCI  30
DOWNTOWN KC    CLOUDY    43  27  53 NW18G25   30.36R
COLUMBIA       CLOUDY    40  30  67 NW15      30.24R WCI  32
SEDALIA        CLOUDY    42  29  59 NW20G26   30.30R
ST JOSEPH      CLOUDY    41  27  57 N20       30.38R
ST LOUIS       CLOUDY    43  30  60 NW16G25   30.16R
SPIRIT OF STL  CLOUDY    41  30  65 NW17G23   30.18R
KIRKSVILLE     FLURRIES  37  30  75 NW22G29   30.24R WCI  26
WICHITA        PTSUNNY   47  26  44 N18G29    30.45S
TOPEKA         CLOUDY    44  29  55 NW23G30   30.41S
OLATHE         CLOUDY    41  27  57 N18G28    30.35S

......TENNESSEE......

CITY           SKY/WX    TMP DP  RH WIND       PRES   REMARKS
MEMPHIS        CLOUDY    63  42  46 NW12G24   30.11S
NASHVILLE      PTSUNNY   65  41  41 W14G25    30.01F

......ARKANSAS.......

CITY           SKY/WX    TMP DP  RH WIND       PRES   REMARKS
FAYETTEVILLE   CLOUDY    41  32  70 N17G26    30.32R
FT SMITH       MOSUNNY   51  34  52 NW18G29   30.31R
LITTLE ROCK    CLOUDY    66  37  34 NW15      30.16S

......OKLAHOMA.......

CITY           SKY/WX    TMP DP  RH WIND       PRES   REMARKS
TULSA          PTSUNNY   50  31  48 N23G30    30.38F
PONCA CITY     MOSUNNY   50  28  42 N21G28    30.44F
MCALESTER      LGT RAIN  55  34  45 N18G30    30.35R
OKLAHOMA CITY  PTSUNNY   51  30  44 N24G32    30.40S

......IOWA............

CITY           SKY/WX    TMP DP  RH WIND       PRES   REMARKS
DES MOINES     CLOUDY    37  25  61 N17       30.29S WCI  27
QUAD CITIES    CLOUDY    36  31  82 NW18      30.10R WCI  26

......ILLINOIS........

CITY           SKY/WX    TMP DP  RH WIND       PRES   REMARKS
QUINCY         CLOUDY    38  30  73 NW24G31   30.17R WCI  27
CHICAGO        CLOUDY    33  26  75 NW16G25   29.95R WCI  23



USA.gov is the U.S. government's official web portal to all federal, state and local government web resources and services.